Location: Newark
(45.8667°N, 9.7333°E)
Time: 03:27:24
(UTC+00:00)

A-11 Canister half - Pass Details

Date: 22 January 2020
Orbit: 1517 x 1683 km, 47.2° (Epoch: 18 February)

Event Time Altitude Azimuth Distance (km) Brightness Sun altitude
Rises 01:54:37 0° 261° (W) 4,693 - -50.9°
Reaches altitude 10° 01:57:41 10° 262° (W) 3,697 - -50.5°
Maximum altitude 02:07:01 85° 351° (N) 1,526 - -49.0°
Exits shadow 02:11:18 38° 78° (ENE) 2,180 9.9 -48.4°
Drops below altitude 10° 02:16:20 10° 81° (E) 3,693 11.5 -47.6°
Sets 02:19:23 0° 83° (E) 4,687 12.2 -47.1°
